| time (UTC) | temp F | wind direction | speed MPH | gust MPH | rain 1hr in | rain 24hr in | rain mn in | humidity % | barometer mb |
| 20260509100046 | 47 | 301 | 0.0 | 0.0 | 0.00 | 0.00 | 0.00 | 96 | 1011.3 |
| 20260509094545 | 47 | 301 | 0.0 | 0.0 | 0.00 | 0.00 | 0.00 | 96 | 1011.4 |
| 20260509093045 | 47 | 301 | 0.0 | 0.0 | 0.00 | 0.00 | 0.00 | 96 | 1011.1 |
| 20260509091557 | 47 | 301 | 0.0 | 0.0 | 0.00 | 0.00 | 0.00 | 96 | 1011.2 |
| 20260509090046 | 47 | 301 | 0.0 | 0.0 | 0.00 | 0.00 | 0.00 | 96 | 1011.3 |
| 20260509084546 | 47 | 301 | 0.0 | 0.0 | 0.00 | 0.00 | 0.00 | 95 | 1011.2 |
| 20260509083043 | 47 | 301 | 0.0 | 0.0 | 0.00 | 0.00 | 0.00 | 95 | 1011.2 |
| 20260509081540 | 47 | 301 | 0.0 | 0.0 | 0.00 | 0.00 | 0.00 | 94 | 1011.0 |
| 20260509080045 | 47 | 301 | 0.0 | 0.0 | 0.00 | 0.00 | 0.00 | 94 | 1010.9 |
| 20260509074543 | 47 | 301 | 0.0 | 0.0 | 0.00 | 0.00 | 0.00 | 94 | 1010.9 |
| 20260509073105 | 47 | 301 | 0.0 | 0.0 | 0.00 | 0.00 | 0.00 | 94 | 1011.0 |
| 20260509071537 | 48 | 301 | 0.0 | 0.0 | 0.00 | 0.00 | 0.00 | 93 | 1011.1 |
| 20260509070032 | 48 | 301 | 0.0 | 0.0 | 0.00 | 0.00 | 0.00 | 93 | 1011.4 |
| 20260509064529 | 48 | 301 | 0.0 | 0.0 | 0.00 | 0.00 | 0.00 | 93 | 1011.5 |
| 20260509063128 | 48 | 301 | 0.0 | 0.0 | 0.00 | 0.00 | 0.00 | 93 | 1011.8 |
| 20260509061526 | 48 | 301 | 0.0 | 0.0 | 0.00 | 0.00 | 0.00 | 92 | 1011.9 |
| 20260509060031 | 48 | 301 | 0.0 | 0.0 | 0.00 | 0.00 | 0.00 | 92 | 1012.5 |
| 20260509054520 | 49 | 301 | 0.0 | 0.0 | 0.00 | 0.00 | 0.00 | 91 | 1012.4 |
| 20260509053022 | 49 | 301 | 0.0 | 0.0 | 0.00 | 0.00 | 0.00 | 90 | 1012.4 |
| 20260509051516 | 50 | 301 | 0.0 | 0.0 | 0.00 | 0.00 | 0.00 | 89 | 1012.6 |
| 20260509050014 | 50 | 301 | 0.0 | 0.0 | 0.00 | 0.00 | 0.00 | 88 | 1012.7 |
| 20260509044512 | 50 | 301 | 0.0 | 0.0 | 0.00 | 0.00 | 0.00 | 86 | 1012.9 |
| 20260509043007 | 50 | 301 | 0.0 | 0.0 | 0.00 | 0.00 | 0.00 | 84 | 1013.2 |
| 20260509041506 | 50 | 301 | 0.0 | 0.0 | 0.00 | 0.00 | 0.00 | 86 | 1013.2 |
| 20260509040002 | 50 | 301 | 0.0 | 0.0 | 0.00 | 0.00 | 0.00 | 88 | 1013.1 |
| 20260509034501 | 50 | 301 | 0.0 | 0.0 | 0.00 | 0.00 | 0.00 | 86 | 1013.0 |
| 20260509033002 | 50 | 301 | 0.0 | 0.0 | 0.00 | 0.00 | 0.00 | 85 | 1013.2 |
| 20260509031501 | 50 | 301 | 0.0 | 0.0 | 0.00 | 0.00 | 0.00 | 84 | 1013.1 |
| 20260509030101 | 51 | 301 | 0.0 | 0.0 | 0.00 | 0.00 | 0.00 | 82 | 1013.0 |
| 20260509024604 | 50 | 301 | 0.0 | 0.0 | 0.00 | 0.00 | 0.00 | 82 | 1013.0 |
| 20260509023100 | 50 | 301 | 0.0 | 0.0 | 0.00 | 0.00 | 0.00 | 83 | 1013.1 |
| 20260509021600 | 51 | 301 | 0.0 | 0.0 | 0.00 | 0.00 | 0.00 | 82 | 1012.8 |
| 20260509020058 | 52 | 301 | 0.0 | 0.0 | 0.00 | 0.00 | 0.00 | 79 | 1012.6 |
| 20260509014557 | 52 | 301 | 0.0 | 0.0 | 0.00 | 0.00 | 0.00 | 80 | 1012.8 |
| 20260509013058 | 52 | 301 | 0.0 | 0.0 | 0.00 | 0.00 | 0.00 | 79 | 1012.7 |
| 20260509011606 | 52 | 301 | 0.0 | 0.0 | 0.00 | 0.00 | 0.00 | 79 | 1013.1 |
| 20260509010056 | 52 | 301 | 0.0 | 0.0 | 0.00 | 0.00 | 0.00 | 78 | 1013.0 |
| 20260509004609 | 53 | 301 | 0.0 | 0.0 | 0.00 | 0.00 | 0.00 | 76 | 1012.6 |
| 20260509003055 | 53 | 301 | 0.0 | 0.0 | 0.00 | 0.00 | 0.00 | 75 | 1012.4 |
| 20260509001555 | 53 | 301 | 0.0 | 0.0 | 0.00 | 0.00 | 0.00 | 75 | 1012.5 |
| 20260509000057 | 54 | 301 | 1.0 | 5.0 | 0.00 | 0.00 | 0.00 | 72 | 1012.4 |
| 20260508234554 | 54 | 301 | 0.0 | 4.0 | 0.00 | 0.00 | 0.00 | 71 | 1012.5 |
| 20260508233053 | 55 | 283 | 0.0 | 9.0 | 0.00 | 0.00 | 0.00 | 70 | 1012.4 |
| 20260508231554 | 56 | 229 | 2.0 | 14.0 | 0.00 | 0.00 | 0.00 | 68 | 1012.5 |
| 20260508230050 | 57 | 304 | 5.0 | 8.0 | 0.00 | 0.00 | 0.00 | 65 | 1012.3 |
| 20260508224552 | 57 | 249 | 2.0 | 8.0 | 0.00 | 0.00 | 0.00 | 64 | 1012.3 |
| 20260508223055 | 58 | 236 | 1.0 | 9.0 | 0.00 | 0.00 | 0.00 | 63 | 1012.1 |
| 20260508221551 | 58 | 217 | 4.0 | 16.0 | 0.00 | 0.00 | 0.00 | 62 | 1012.1 |
| 20260508220049 | 57 | 218 | 7.0 | 16.0 | 0.00 | 0.00 | 0.00 | 65 | 1012.1 |
| 20260508214556 | 57 | 283 | 7.0 | 17.0 | 0.00 | 0.00 | 0.00 | 65 | 1012.3 |
| 20260508213047 | 58 | 253 | 7.0 | 18.0 | 0.00 | 0.00 | 0.00 | 64 | 1012.2 |
| 20260508211546 | 58 | 244 | 8.0 | 16.0 | 0.00 | 0.00 | 0.00 | 63 | 1012.0 |
| 20260508210045 | 58 | 225 | 7.0 | 17.0 | 0.00 | 0.00 | 0.00 | 62 | 1011.9 |
| 20260508204546 | 58 | 288 | 4.0 | 15.0 | 0.00 | 0.00 | 0.00 | 61 | 1012.0 |
| 20260508203047 | 59 | 136 | 11.0 | 20.0 | 0.00 | 0.00 | 0.00 | 60 | 1012.1 |
| 20260508201543 | 58 | 208 | 6.0 | 17.0 | 0.00 | 0.00 | 0.00 | 63 | 1012.1 |
| 20260508200042 | 57 | 219 | 7.0 | 17.0 | 0.00 | 0.00 | 0.00 | 66 | 1012.2 |
| 20260508194541 | 59 | 239 | 7.0 | 23.0 | 0.00 | 0.00 | 0.00 | 60 | 1012.3 |
| 20260508193054 | 61 | 317 | 6.0 | 21.0 | 0.00 | 0.00 | 0.00 | 53 | 1012.0 |
| 20260508191543 | 61 | 241 | 6.0 | 16.0 | 0.00 | 0.00 | 0.00 | 54 | 1012.0 |
| 20260508190038 | 59 | 222 | 6.0 | 12.0 | 0.00 | 0.00 | 0.00 | 54 | 1012.2 |
| 20260508184538 | 60 | 223 | 7.0 | 19.0 | 0.00 | 0.00 | 0.00 | 52 | 1012.3 |
| 20260508183037 | 62 | 210 | 7.0 | 14.0 | 0.00 | 0.00 | 0.00 | 49 | 1012.0 |
| 20260508181539 | 63 | 226 | 8.0 | 17.0 | 0.00 | 0.00 | 0.00 | 48 | 1012.1 |
| 20260508180039 | 63 | 275 | 4.0 | 17.0 | 0.00 | 0.00 | 0.00 | 48 | 1012.0 |
| 20260508174534 | 62 | 279 | 5.0 | 14.0 | 0.00 | 0.00 | 0.00 | 49 | 1012.7 |
| 20260508173028 | 63 | 226 | 7.0 | 14.0 | 0.00 | 0.00 | 0.00 | 49 | 1012.8 |
| 20260508171531 | 61 | 190 | 6.0 | 14.0 | 0.00 | 0.00 | 0.00 | 54 | 1013.0 |
| 20260508170122 | 60 | 297 | 7.0 | 20.0 | 0.00 | 0.00 | 0.00 | 51 | 1013.3 |
| 20260508164520 | 59 | 278 | 8.0 | 22.0 | 0.00 | 0.00 | 0.00 | 53 | 1013.2 |
| 20260508163020 | 59 | 259 | 5.0 | 12.0 | 0.00 | 0.00 | 0.00 | 53 | 1013.3 |
| 20260508161517 | 59 | 305 | 7.0 | 20.0 | 0.00 | 0.00 | 0.00 | 53 | 1013.5 |
| 20260508160032 | 59 | 257 | 4.0 | 11.0 | 0.00 | 0.00 | 0.00 | 53 | 1013.6 |
| 20260508154514 | 59 | 238 | 7.0 | 20.0 | 0.00 | 0.00 | 0.00 | 53 | 1013.6 |
| 20260508153011 | 58 | 259 | 5.0 | 21.0 | 0.00 | 0.00 | 0.00 | 55 | 1013.6 |
| 20260508151511 | 57 | 204 | 7.0 | 17.0 | 0.00 | 0.00 | 0.00 | 56 | 1013.7 |
| 20260508150014 | 56 | 226 | 8.0 | 19.0 | 0.00 | 0.00 | 0.00 | 56 | 1013.8 |
| 20260508144502 | 55 | 262 | 7.0 | 19.0 | 0.00 | 0.00 | 0.00 | 59 | 1013.9 |
| 20260508143106 | 53 | 246 | 8.0 | 15.0 | 0.00 | 0.00 | 0.00 | 60 | 1014.0 |
| 20260508141606 | 53 | 250 | 6.0 | 17.0 | 0.00 | 0.00 | 0.00 | 61 | 1014.2 |
| 20260508140055 | 53 | 315 | 3.0 | 21.0 | 0.00 | 0.00 | 0.00 | 62 | 1014.2 |
| 20260508134555 | 52 | 260 | 4.0 | 17.0 | 0.00 | 0.00 | 0.00 | 62 | 1014.1 |
| 20260508133058 | 52 | 303 | 2.0 | 13.0 | 0.00 | 0.00 | 0.00 | 61 | 1014.0 |
| 20260508131550 | 51 | 233 | 0.0 | 7.0 | 0.00 | 0.00 | 0.00 | 63 | 1014.2 |
| 20260508130053 | 48 | 175 | 3.0 | 10.0 | 0.00 | 0.00 | 0.00 | 68 | 1014.1 |
| 20260508124541 | 45 | 163 | 2.0 | 7.0 | 0.00 | 0.00 | 0.00 | 75 | 1014.2 |
| 20260508123041 | 44 | 213 | 3.0 | 7.0 | 0.00 | 0.00 | 0.00 | 77 | 1014.4 |
| 20260508121557 | 44 | 236 | 2.0 | 6.0 | 0.00 | 0.00 | 0.00 | 78 | 1014.4 |
| 20260508120040 | 43 | 211 | 1.0 | 5.0 | 0.00 | 0.00 | 0.00 | 78 | 1014.4 |
| 20260508114538 | 41 | 215 | 0.0 | 4.0 | 0.00 | 0.00 | 0.00 | 85 | 1014.5 |
| 20260508113038 | 39 | 232 | 2.0 | 6.0 | 0.00 | 0.00 | 0.00 | 89 | 1014.4 |
| 20260508111536 | 38 | 177 | 0.0 | 3.0 | 0.00 | 0.00 | 0.00 | 89 | 1014.3 |
| 20260508110045 | 38 | 177 | 0.0 | 2.0 | 0.00 | 0.00 | 0.00 | 89 | 1014.3 |
| 20260508104533 | 38 | 174 | 0.0 | 0.0 | 0.00 | 0.00 | 0.00 | 88 | 1014.2 |
| 20260508103033 | 38 | 174 | 0.0 | 4.0 | 0.00 | 0.00 | 0.00 | 86 | 1014.2 |
| 20260508101531 | 38 | 173 | 0.0 | 2.0 | 0.00 | 0.00 | 0.00 | 85 | 1014.0 |